Time,TemperatureF,DewpointF,PressureIn,WindDirection,WindDirectionDegrees,WindSpeedMPH,WindSpeedGustMPH,Humidity,HourlyPrecipIn,Conditions,Clouds,dailyrainin,SolarRadiationWatts/m^2,SoftwareType,DateUTC
2013-05-08 00:00:00,46.0,40.0,-100.00,West,270,0.0,-999.0,78,-99.99,,,-99.99,0.000000,,2013-05-08 04:00:00,
2013-05-08 00:43:00,46.0,40.0,-100.00,West,270,0.0,-999.0,78,-99.99,,,-99.99,0.000000,,2013-05-08 04:43:00,
2013-05-08 00:53:00,46.0,40.0,-100.00,West,270,0.0,-999.0,78,-99.99,,,-99.99,0.000000,,2013-05-08 04:53:00,
2013-05-08 01:00:00,44.0,39.0,-100.00,SSE,157,1.0,-999.0,80,-99.99,,,-99.99,0.000000,,2013-05-08 05:00:00,
2013-05-08 01:42:00,44.0,39.0,-100.00,SSE,157,1.0,-999.0,80,-99.99,,,-99.99,0.000000,,2013-05-08 05:42:00,
2013-05-08 01:52:00,44.0,39.0,-100.00,SSE,157,1.0,-999.0,80,-99.99,,,-99.99,0.000000,,2013-05-08 05:52:00,
2013-05-08 02:00:00,43.0,37.0,-100.00,WNW,292,0.0,-999.0,80,-99.99,,,-99.99,0.000000,,2013-05-08 06:00:00,
2013-05-08 02:42:00,43.0,37.0,-100.00,WNW,292,0.0,-999.0,80,-99.99,,,-99.99,0.000000,,2013-05-08 06:42:00,
2013-05-08 02:52:00,43.0,37.0,-100.00,WNW,292,0.0,-999.0,80,-99.99,,,-99.99,0.000000,,2013-05-08 06:52:00,
2013-05-08 04:00:00,41.0,37.0,-100.00,WNW,292,1.0,-999.0,86,-99.99,,,-99.99,0.000000,,2013-05-08 08:00:00,
2013-05-08 04:43:00,41.0,37.0,-100.00,WNW,292,1.0,-999.0,86,-99.99,,,-99.99,0.000000,,2013-05-08 08:43:00,
2013-05-08 04:52:00,41.0,37.0,-100.00,WNW,292,1.0,-999.0,86,-99.99,,,-99.99,0.000000,,2013-05-08 08:52:00,
2013-05-08 05:00:00,40.0,36.0,-100.00,WNW,292,1.0,-999.0,87,-99.99,,,-99.99,0.000000,,2013-05-08 09:00:00,
2013-05-08 05:42:00,40.0,36.0,-100.00,WNW,292,1.0,-999.0,87,-99.99,,,-99.99,0.000000,,2013-05-08 09:42:00,
2013-05-08 05:53:00,40.0,36.0,-100.00,WNW,292,1.0,-999.0,87,-99.99,,,-99.99,0.000000,,2013-05-08 09:53:00,
2013-05-08 06:00:00,38.0,35.0,-100.00,North,0,0.0,-999.0,88,-99.99,,,-99.99,0.000000,,2013-05-08 10:00:00,
2013-05-08 06:42:00,38.0,35.0,-100.00,North,0,0.0,-999.0,88,-99.99,,,-99.99,0.000000,,2013-05-08 10:42:00,
2013-05-08 06:52:00,38.0,35.0,-100.00,North,0,0.0,-999.0,88,-99.99,,,-99.99,0.000000,,2013-05-08 10:52:00,
2013-05-08 07:00:00,38.0,35.0,-100.00,South,180,1.0,-999.0,89,-99.99,,,-99.99,13.920000,,2013-05-08 11:00:00,
2013-05-08 07:42:00,38.0,35.0,-100.00,South,180,1.0,-999.0,89,-99.99,,,-99.99,13.920000,,2013-05-08 11:42:00,
2013-05-08 07:52:00,38.0,35.0,-100.00,South,180,1.0,-999.0,89,-99.99,,,-99.99,13.920000,,2013-05-08 11:52:00,
2013-05-08 09:00:00,57.0,41.0,-100.00,SSE,157,1.0,-999.0,55,-99.99,,,-99.99,288.839996,,2013-05-08 13:00:00,
2013-05-08 09:42:00,57.0,41.0,-100.00,SSE,157,1.0,-999.0,55,-99.99,,,-99.99,288.839996,,2013-05-08 13:42:00,
2013-05-08 09:52:00,57.0,41.0,-100.00,SSE,157,1.0,-999.0,55,-99.99,,,-99.99,288.839996,,2013-05-08 13:52:00,
2013-05-08 10:00:00,64.0,39.0,-100.00,SW,225,2.0,-999.0,39,-99.99,,,-99.99,440.799988,,2013-05-08 14:00:00,
2013-05-08 10:42:00,64.0,39.0,-100.00,SW,225,2.0,-999.0,39,-99.99,,,-99.99,440.799988,,2013-05-08 14:42:00,
2013-05-08 10:52:00,64.0,39.0,-100.00,SW,225,2.0,-999.0,39,-99.99,,,-99.99,440.799988,,2013-05-08 14:52:00,
2013-05-08 13:00:00,76.0,40.0,-100.00,SSW,202,5.0,-999.0,27,-99.99,,,-99.99,821.280029,,2013-05-08 17:00:00,
2013-05-08 13:52:00,76.0,40.0,-100.00,SSW,202,5.0,-999.0,27,-99.99,,,-99.99,821.280029,,2013-05-08 17:52:00,
2013-05-08 15:00:00,73.0,41.0,-100.00,South,180,9.0,-999.0,31,-99.99,,,-99.99,618.280029,,2013-05-08 19:00:00,
2013-05-08 15:42:00,73.0,41.0,-100.00,South,180,9.0,-999.0,31,-99.99,,,-99.99,618.280029,,2013-05-08 19:42:00,
2013-05-08 15:52:00,73.0,41.0,-100.00,South,180,9.0,-999.0,31,-99.99,,,-99.99,618.280029,,2013-05-08 19:52:00,
2013-05-08 16:00:00,72.0,40.0,-100.00,South,180,8.0,-999.0,31,-99.99,,,-99.99,523.159973,,2013-05-08 20:00:00,
2013-05-08 16:42:00,72.0,40.0,-100.00,South,180,8.0,-999.0,31,-99.99,,,-99.99,523.159973,,2013-05-08 20:42:00,
2013-05-08 16:52:00,72.0,40.0,-100.00,South,180,8.0,-999.0,31,-99.99,,,-99.99,523.159973,,2013-05-08 20:52:00,
2013-05-08 17:00:00,73.0,42.0,-100.00,South,180,8.0,-999.0,32,-99.99,,,-99.99,667.000000,,2013-05-08 21:00:00,
2013-05-08 17:43:00,73.0,42.0,-100.00,South,180,8.0,-999.0,32,-99.99,,,-99.99,667.000000,,2013-05-08 21:43:00,
2013-05-08 17:53:00,73.0,42.0,-100.00,South,180,8.0,-999.0,32,-99.99,,,-99.99,667.000000,,2013-05-08 21:53:00,
2013-05-08 18:00:00,73.0,41.0,-100.00,SSW,202,8.0,-999.0,31,-99.99,,,-99.99,499.959991,,2013-05-08 22:00:00,
2013-05-08 18:42:00,73.0,41.0,-100.00,SSW,202,8.0,-999.0,31,-99.99,,,-99.99,499.959991,,2013-05-08 22:42:00,
2013-05-08 18:53:00,73.0,41.0,-100.00,SSW,202,8.0,-999.0,31,-99.99,,,-99.99,499.959991,,2013-05-08 22:53:00,
2013-05-08 19:00:00,72.0,40.0,-100.00,South,180,6.0,-999.0,32,-99.99,,,-99.99,354.959991,,2013-05-08 23:00:00,
2013-05-08 19:42:00,72.0,40.0,-100.00,South,180,6.0,-999.0,32,-99.99,,,-99.99,354.959991,,2013-05-08 23:42:00,
2013-05-08 19:52:00,72.0,40.0,-100.00,South,180,6.0,-999.0,32,-99.99,,,-99.99,354.959991,,2013-05-08 23:52:00,
2013-05-08 22:00:00,58.0,40.0,-100.00,ESE,112,1.0,-999.0,50,-99.99,,,-99.99,0.000000,,2013-05-09 02:00:00,
2013-05-08 23:00:00,56.0,40.0,-100.00,SE,135,1.0,-999.0,55,-99.99,,,-99.99,0.000000,,2013-05-09 03:00:00,
2013-05-08 23:43:00,56.0,40.0,-100.00,SE,135,1.0,-999.0,55,-99.99,,,-99.99,0.000000,,2013-05-09 03:43:00,
2013-05-08 23:53:00,56.0,40.0,-100.00,SE,135,1.0,-999.0,55,-99.99,,,-99.99,0.000000,,2013-05-09 03:53:00,